EW5035 Weather Reports


Display with metric or nautical units.
time (UTC)temp
F
wind
direction
speed
MPH
gust
MPH
rain 1hr
in
rain 24hr
in
rain mn
in
humidity
%
barometer
mb
20260903143530 54 173 9.0 16.0 0.00 0.08 0.08 85 1011.7
20260903143105 53 170 11.0 18.0 0.00 0.08 0.08 85 1011.7
20260903142530 53 169 12.0 18.0 0.00 0.08 0.08 86 1011.7
20260903142033 53 176 9.0 15.0 0.00 0.08 0.08 86 1011.7
20260903141557 53 169 5.0 15.0 0.00 0.08 0.08 86 1011.7
20260903141036 53 169 7.0 15.0 0.00 0.08 0.08 87 1011.6
20260903140535 53 171 9.0 16.0 0.00 0.08 0.08 87 1011.6
20260903140054 53 168 10.0 17.0 0.00 0.08 0.08 87 1011.6
20260903135533 53 164 10.0 17.0 0.00 0.08 0.08 88 1011.7
20260903135035 52 172 9.0 15.0 0.00 0.08 0.08 87 1011.7
20260903134549 52 172 9.0 16.0 0.00 0.08 0.08 87 1011.6
20260903134031 52 175 8.0 16.0 0.00 0.08 0.08 88 1011.7
20260903133531 52 180 6.0 12.0 0.00 0.08 0.08 88 1011.5
20260903133056 53 183 7.0 19.0 0.00 0.08 0.08 87 1011.4
20260903132534 53 174 8.0 19.0 0.00 0.08 0.08 88 1011.4
20260903132030 53 164 11.0 19.0 0.00 0.08 0.08 88 1011.2
20260903131608 53 168 11.0 17.0 0.00 0.08 0.08 88 1011.1
20260903131034 53 158 6.0 17.0 0.00 0.08 0.08 88 1011.1
20260903130535 53 163 5.0 14.0 0.00 0.08 0.08 88 1011.0
20260903130105 53 161 5.0 13.0 0.00 0.08 0.08 88 1010.8
20260903125531 53 161 8.0 13.0 0.00 0.08 0.08 88 1010.8
20260903125030 53 159 8.0 13.0 0.00 0.08 0.08 88 1010.8
20260903124549 53 159 7.0 17.0 0.00 0.08 0.08 88 1010.8
20260903124030 53 157 7.0 18.0 0.00 0.08 0.08 88 1010.7
20260903123533 53 175 11.0 18.0 0.00 0.08 0.08 88 1010.6
20260903123102 53 144 13.0 20.0 0.00 0.08 0.08 88 1010.5
20260903122531 53 153 12.0 20.0 0.00 0.08 0.08 87 1010.5
20260903122034 53 160 13.0 18.0 0.00 0.08 0.08 87 1010.6
20260903121553 53 161 13.0 18.0 0.00 0.08 0.08 87 1010.4
20260903121035 53 161 12.0 19.0 0.00 0.08 0.08 87 1010.4
20260903120538 54 150 11.0 19.0 0.00 0.08 0.08 87 1010.3
20260903120049 54 150 13.0 18.0 0.00 0.08 0.08 87 1010.2
20260903115534 54 145 11.0 16.0 0.00 0.08 0.08 87 1010.1
20260903115035 54 150 10.0 19.0 0.00 0.08 0.08 87 1010.1
20260903114551 54 154 10.0 19.0 0.00 0.08 0.08 87 1010.3
20260903114031 54 153 13.0 19.0 0.00 0.08 0.08 87 1010.3
20260903113532 54 164 11.0 17.0 0.00 0.08 0.08 87 1010.3
20260903113059 54 163 9.0 19.0 0.00 0.08 0.08 87 1010.3
20260903112531 54 173 8.0 19.0 0.00 0.08 0.08 87 1010.3
20260903112034 54 169 11.0 18.0 0.00 0.08 0.08 87 1010.3
20260903111604 54 161 11.0 18.0 0.00 0.08 0.08 87 1010.2
20260903111035 54 154 11.0 18.0 0.00 0.08 0.08 87 1010.2
20260903110534 54 167 9.0 17.0 0.00 0.08 0.08 87 1010.3
20260903110051 54 163 11.0 19.0 0.00 0.08 0.08 87 1010.3
20260903105533 54 171 10.0 19.0 0.00 0.08 0.08 87 1010.4
20260903105031 54 173 11.0 17.0 0.00 0.08 0.08 87 1010.3
20260903104557 54 167 9.0 16.0 0.00 0.08 0.08 87 1010.3
20260903104033 54 169 9.0 17.0 0.01 0.08 0.08 87 1010.2
20260903103531 54 165 9.0 17.0 0.01 0.08 0.08 88 1010.2
20260903103059 54 163 7.0 14.0 0.01 0.08 0.08 88 1010.3
20260903102532 54 162 7.0 15.0 0.01 0.08 0.08 88 1010.2
20260903102033 54 161 6.0 15.0 0.01 0.08 0.08 88 1010.3
20260903101558 54 159 8.0 14.0 0.01 0.08 0.08 88 1010.3
20260903101034 54 159 9.0 14.0 0.01 0.08 0.08 88 1010.3
20260903100534 54 140 7.0 14.0 0.01 0.08 0.08 88 1010.1
20260903100054 54 139 8.0 14.0 0.01 0.08 0.08 88 1010.0
20260903095533 54 139 11.0 14.0 0.01 0.08 0.08 88 1010.1
20260903095030 54 139 8.0 15.0 0.01 0.08 0.08 88 1010.1
20260903094552 54 139 10.0 15.0 0.01 0.08 0.08 88 1009.9
20260903094034 54 139 11.0 16.0 0.00 0.07 0.07 89 1010.0
20260903093531 55 139 9.0 16.0 0.00 0.07 0.07 89 1009.8
20260903093106 55 143 9.0 17.0 0.01 0.07 0.07 89 1009.7
20260903092538 55 143 11.0 17.0 0.01 0.07 0.07 89 1009.7
20260903092034 55 150 8.0 16.0 0.01 0.07 0.07 89 1009.7
20260903091554 55 150 10.0 15.0 0.02 0.07 0.07 89 1009.7
20260903091033 55 150 9.0 14.0 0.02 0.07 0.07 88 1009.7
20260903090531 55 150 8.0 14.0 0.02 0.07 0.07 88 1009.6
20260903090052 55 150 9.0 14.0 0.02 0.07 0.07 88 1009.7
20260903085531 55 160 8.0 14.0 0.02 0.07 0.07 88 1009.7
20260903085031 55 165 7.0 14.0 0.03 0.07 0.07 88 1009.7
20260903084551 55 167 8.0 14.0 0.03 0.07 0.07 88 1009.8
20260903084031 55 167 7.0 11.0 0.04 0.07 0.07 88 1009.8
20260903083530 55 167 7.0 11.0 0.04 0.07 0.07 89 1009.7
20260903083100 55 182 7.0 14.0 0.04 0.06 0.06 89 1009.8
20260903082530 55 182 8.0 15.0 0.05 0.06 0.06 89 1009.9
20260903082036 55 179 8.0 15.0 0.05 0.06 0.06 89 1009.9
20260903081553 55 182 10.0 15.0 0.04 0.05 0.05 89 1009.8
20260903081033 55 172 9.0 15.0 0.05 0.05 0.05 89 1009.9
20260903080534 55 172 9.0 15.0 0.05 0.05 0.05 89 1009.8
20260903080056 55 175 8.0 16.0 0.05 0.05 0.05 89 1009.8
20260903075534 55 186 7.0 16.0 0.05 0.05 0.05 89 1009.8
20260903075034 55 163 9.0 15.0 0.04 0.04 0.04 89 1009.8
20260903074601 55 168 10.0 16.0 0.04 0.04 0.04 89 1009.6
20260903074031 55 169 8.0 16.0 0.03 0.03 0.03 89 1009.7
20260903073534 55 178 8.0 15.0 0.02 0.02 0.02 89 1009.7
20260903073050 55 169 8.0 15.0 0.02 0.02 0.02 88 1009.6
20260903072534 56 189 6.0 17.0 0.01 0.01 0.01 88 1009.6
20260903072035 56 190 8.0 18.0 0.01 0.01 0.01 88 1009.6
20260903071554 56 190 10.0 20.0 0.01 0.01 0.01 87 1009.6
20260903071033 56 175 12.0 20.0 0.00 0.00 0.00 87 1009.5
20260903070531 56 195 10.0 16.0 0.00 0.00 0.00 87 1009.5
20260903070051 56 184 9.0 16.0 0.00 0.00 0.00 87 1009.5
20260903065534 56 183 11.0 15.0 0.00 0.00 0.00 87 1009.5
20260903065034 56 175 9.0 18.0 0.00 0.00 0.00 87 1009.5
20260903064550 56 158 3.0 18.0 0.00 0.00 0.00 86 1009.4
20260903064034 56 176 6.0 18.0 0.00 0.00 0.00 86 1009.3
20260903063531 56 162 4.0 16.0 0.00 0.00 0.00 86 1009.5
20260903063058 56 176 5.0 20.0 0.00 0.00 0.00 86 1009.4
20260903062534 56 183 7.0 20.0 0.00 0.00 0.00 86 1009.6
20260903062031 56 180 7.0 14.0 0.00 0.00 0.00 86 1009.5
20260903061555 56 180 6.0 14.0 0.00 0.00 0.00 86 1009.5
20260903061034 56 182 6.0 13.0 0.00 0.00 0.00 86 1009.5
20260903060533 56 182 7.0 13.0 0.00 0.00 0.00 86 1009.6
20260903060050 56 182 8.0 13.0 0.00 0.00 0.00 86 1009.6
20260903055534 57 184 6.0 12.0 0.00 0.00 0.00 85 1009.6
20260903055031 57 190 7.0 12.0 0.00 0.00 0.00 85 1009.6
20260903054559 57 168 6.0 15.0 0.00 0.00 0.00 85 1009.6
20260903054034 57 168 7.0 15.0 0.00 0.00 0.00 85 1009.6
20260903053531 57 167 8.0 16.0 0.00 0.00 0.00 85 1009.5
20260903053057 57 165 9.0 16.0 0.00 0.00 0.00 85 1009.5
20260903052533 57 174 7.0 13.0 0.00 0.00 0.00 85 1009.5
20260903052034 57 182 6.0 12.0 0.00 0.00 0.00 84 1009.6
20260903051553 57 184 6.0 13.0 0.00 0.00 0.00 84 1009.6
20260903051034 57 162 7.0 13.0 0.00 0.00 0.00 84 1009.7
20260903050530 57 163 6.0 13.0 0.00 0.00 0.00 84 1009.7
20260903050053 57 161 7.0 15.0 0.00 0.00 0.00 83 1009.7
20260903045531 57 162 8.0 15.0 0.00 0.00 0.00 83 1009.8
20260903045038 57 184 5.0 11.0 0.00 0.00 0.00 82 1009.8
20260903044548 58 184 6.0 14.0 0.00 0.00 0.00 82 1009.8
20260903044037 58 184 6.0 14.0 0.00 0.00 0.00 82 1009.7
20260903043532 58 185 5.0 10.0 0.00 0.00 0.00 82 1009.7
20260903043053 58 185 5.0 11.0 0.00 0.00 0.00 82 1009.7
20260903042534 58 185 5.0 13.0 0.00 0.00 0.00 81 1009.6
20260903042037 58 188 7.0 13.0 0.00 0.00 0.00 82 1009.7
20260903041557 58 200 4.0 8.0 0.00 0.00 0.00 82 1009.6
20260903041033 58 200 5.0 10.0 0.00 0.00 0.00 82 1009.6
20260903040534 58 199 4.0 10.0 0.00 0.00 0.00 82 1009.5
20260903040051 58 197 5.0 10.0 0.00 0.00 0.00 81 1009.6
20260903035530 58 198 6.0 12.0 0.00 0.00 0.00 80 1009.6
20260903035034 58 197 7.0 12.0 0.00 0.00 0.00 80 1009.6
20260903034602 59 199 8.0 12.0 0.00 0.00 0.00 79 1009.6
20260903034034 59 198 8.0 12.0 0.00 0.00 0.00 78 1009.4
20260903033536 59 198 7.0 12.0 0.00 0.00 0.00 78 1009.4
20260903033053 59 198 7.0 11.0 0.00 0.00 0.00 78 1009.4
20260903032535 59 205 6.0 10.0 0.00 0.00 0.00 78 1009.3
20260903032034 59 209 6.0 11.0 0.00 0.00 0.00 78 1009.3
20260903031552 59 209 7.0 11.0 0.00 0.00 0.00 77 1009.3
20260903031034 59 202 7.0 11.0 0.00 0.00 0.00 77 1009.3
20260903030534 59 200 8.0 11.0 0.00 0.00 0.00 76 1009.3
20260903030100 59 199 6.0 10.0 0.00 0.00 0.00 76 1009.2
20260903025537 59 199 7.0 11.0 0.00 0.00 0.00 75 1009.1
20260903025036 60 205 8.0 11.0 0.00 0.00 0.00 74 1009.2
20260903024554 60 208 8.0 12.0 0.00 0.00 0.00 73 1009.2
20260903024033 60 219 6.0 13.0 0.00 0.00 0.00 72 1009.2
20260903023533 60 219 8.0 16.0 0.00 0.00 0.00 71 1009.0
20260903023113 60 223 9.0 16.0 0.00 0.00 0.00 71 1009.0
20260903022533 60 214 5.0 10.0 0.00 0.00 0.00 72 1009.1
20260903022035 60 214 5.0 10.0 0.00 0.00 0.00 72 1009.1
20260903021600 60 215 7.0 11.0 0.00 0.00 0.00 72 1009.1
20260903021034 60 217 5.0 11.0 0.00 0.00 0.00 72 1009.1
20260903020537 60 217 7.0 12.0 0.00 0.00 0.00 72 1009.2
20260903020055 60 216 6.0 15.0 0.00 0.00 0.00 72 1009.2
20260903015536 60 217 8.0 17.0 0.00 0.00 0.00 71 1009.2
20260903015031 60 215 12.0 25.0 0.00 0.00 0.00 68 1009.2
20260903014601 61 217 15.0 25.0 0.00 0.00 0.00 66 1009.2
20260903014034 63 224 18.0 27.0 0.00 0.00 0.00 62 1009.2
20260903013531 64 219 16.0 27.0 0.00 0.00 0.00 58 1009.0
20260903013059 64 216 21.0 26.0 0.00 0.00 0.00 55 1008.9
20260903012535 65 217 16.0 24.0 0.00 0.00 0.00 53 1008.7
20260903012040 65 229 13.0 23.0 0.00 0.00 0.00 53 1008.5
20260903011607 65 234 17.0 23.0 0.00 0.00 0.00 52 1008.5
20260903011037 66 238 13.0 26.0 0.00 0.00 0.00 51 1008.5
20260903010535 66 222 18.0 26.0 0.00 0.00 0.00 51 1008.3
20260903010059 66 224 17.0 24.0 0.00 0.00 0.00 50 1008.5
20260903005533 66 220 15.0 20.0 0.00 0.00 0.00 50 1008.2
20260903005035 66 215 13.0 25.0 0.00 0.00 0.00 51 1008.4
20260903004555 66 226 16.0 25.0 0.00 0.00 0.00 51 1008.3
20260903004031 66 219 16.0 23.0 0.00 0.00 0.00 51 1008.4
20260903003535 66 213 14.0 22.0 0.00 0.00 0.00 52 1008.3
20260903003054 66 234 15.0 24.0 0.00 0.00 0.00 53 1008.3
20260903002535 66 222 16.0 24.0 0.00 0.00 0.00 53 1008.5
20260903002035 65 218 17.0 24.0 0.00 0.00 0.00 54 1008.4
20260903001601 65 218 7.0 16.0 0.00 0.00 0.00 62 1008.5
20260903001037 64 236 11.0 15.0 0.00 0.00 0.00 61 1008.3
20260903000534 64 211 8.0 17.0 0.00 0.00 0.00 66 1008.3
20260903000050 64 223 11.0 20.0 0.00 0.00 0.00 68 1008.2
20260902235535 63 221 13.0 20.0 0.00 0.00 0.00 69 1008.3
20260902235035 63 221 14.0 35.0 0.00 0.00 0.00 70 1008.3
20260902234600 63 226 19.0 47.0 0.00 0.00 0.00 69 1008.3
20260902234034 65 224 30.0 47.0 0.00 0.00 0.00 60 1008.0
20260902233535 73 229 18.0 24.0 0.00 0.00 0.00 38 1007.5
20260902233052 73 234 13.0 19.0 0.00 0.00 0.00 37 1007.0
20260902232534 73 228 11.0 17.0 0.00 0.00 0.00 37 1006.7
20260902232034 74 229 10.0 16.0 0.00 0.00 0.00 36 1006.6
20260902231600 74 228 10.0 15.0 0.00 0.00 0.00 36 1006.5
20260902231034 74 223 8.0 14.0 0.00 0.00 0.00 35 1006.5
20260902230537 75 228 7.0 13.0 0.00 0.00 0.00 34 1006.5
20260902230104 75 242 5.0 11.0 0.00 0.00 0.00 34 1006.3
20260902225534 75 242 2.0 8.0 0.00 0.00 0.00 35 1006.5
20260902225037 75 242 2.0 10.0 0.00 0.00 0.00 35 1006.4
20260902224603 74 242 5.0 10.0 0.00 0.00 0.00 36 1006.5
20260902224034 74 240 5.0 9.0 0.00 0.00 0.00 35 1006.4
20260902223535 74 240 5.0 9.0 0.00 0.00 0.00 35 1006.4
20260902223104 74 240 0.0 8.0 0.00 0.00 0.00 36 1006.5
20260902222534 74 239 4.0 8.0 0.00 0.00 0.00 36 1006.5
20260902222035 75 240 3.0 6.0 0.00 0.00 0.00 35 1006.6
20260902221552 74 240 2.0 7.0 0.00 0.00 0.00 36 1006.5
20260902221034 73 239 3.0 8.0 0.00 0.00 0.00 37 1006.6
20260902220535 73 0 3.0 8.0 0.00 0.00 0.00 37 1006.7
20260902220059 73 239 5.0 10.0 0.00 0.00 0.00 37 1006.8
20260902215534 72 239 3.0 10.0 0.00 0.00 0.00 38 1006.8
20260902215035 72 240 4.0 12.0 0.00 0.00 0.00 37 1006.9
20260902214601 72 240 7.0 12.0 0.00 0.00 0.00 38 1007.0
20260902214035 72 236 6.0 15.0 0.00 0.00 0.00 37 1007.1
20260902213533 72 236 8.0 15.0 0.00 0.00 0.00 37 1007.2
20260902213053 73 234 9.0 15.0 0.00 0.00 0.00 36 1007.2
20260902212534 73 232 5.0 14.0 0.00 0.00 0.00 38 1007.3
20260902212034 72 232 7.0 14.0 0.00 0.00 0.00 38 1007.3
20260902211551 73 232 6.0 14.0 0.00 0.00 0.00 37 1007.3
20260902211033 73 233 9.0 14.0 0.00 0.00 0.00 36 1007.4
20260902210534 73 263 7.0 12.0 0.00 0.00 0.00 37 1007.5
20260902210059 73 271 7.0 14.0 0.00 0.00 0.00 36 1007.5
20260902205534 73 219 4.0 18.0 0.00 0.00 0.00 36 1007.5
20260902205034 73 217 9.0 18.0 0.00 0.00 0.00 36 1007.7
20260902204558 74 223 5.0 15.0 0.00 0.00 0.00 36 1007.8
20260902204034 74 155 8.0 15.0 0.00 0.00 0.00 38 1007.8
20260902203534 74 172 6.0 14.0 0.00 0.00 0.00 38 1007.8
20260902203053 73 193 3.0 14.0 0.00 0.00 0.00 39 1007.9
20260902202536 73 167 5.0 11.0 0.00 0.00 0.00 39 1007.8
20260902202034 72 171 3.0 12.0 0.00 0.00 0.00 40 1008.1
20260902201601 71 186 4.0 17.0 0.00 0.00 0.00 41 1008.3
20260902201037 71 226 12.0 17.0 0.00 0.00 0.00 41 1008.2
20260902200535 71 237 9.0 16.0 0.00 0.00 0.00 40 1008.3
20260902200049 71 240 7.0 15.0 0.00 0.00 0.00 40 1008.4
20260902195534 71 211 9.0 18.0 0.00 0.00 0.00 41 1008.5
20260902195034 71 221 10.0 19.0 0.00 0.00 0.00 39 1008.5
20260902194602 71 246 10.0 19.0 0.00 0.00 0.00 41 1008.7
20260902194034 71 240 12.0 19.0 0.00 0.00 0.00 41 1008.7
20260902193537 70 209 10.0 18.0 0.00 0.00 0.00 42 1008.7
20260902193058 70 200 11.0 22.0 0.00 0.00 0.00 42 1008.7
20260902192537 70 227 10.0 22.0 0.00 0.00 0.00 42 1008.8
20260902192035 70 229 14.0 22.0 0.00 0.00 0.00 42 1008.8
20260902191557 70 190 10.0 17.0 0.00 0.00 0.00 42 1008.8
20260902191035 69 217 8.0 17.0 0.00 0.00 0.00 43 1008.9
20260902190534 69 171 11.0 17.0 0.00 0.00 0.00 43 1009.0
20260902190049 69 219 7.0 18.0 0.00 0.00 0.00 44 1009.0
20260902185537 69 178 9.0 18.0 0.00 0.00 0.00 45 1008.9
20260902185035 68 175 11.0 18.0 0.00 0.00 0.00 47 1008.9
20260902184555 68 198 12.0 21.0 0.00 0.00 0.00 46 1008.9
20260902184034 68 193 11.0 24.0 0.00 0.00 0.00 45 1009.0
20260902183534 68 199 15.0 24.0 0.00 0.00 0.00 44 1009.1
20260902183113 68 225 13.0 21.0 0.00 0.00 0.00 45 1009.1
20260902182533 68 191 15.0 21.0 0.00 0.00 0.00 45 1009.1
20260902182034 68 225 13.0 21.0 0.00 0.00 0.00 46 1009.1
20260902181555 67 207 15.0 21.0 0.00 0.00 0.00 47 1009.0
20260902181033 67 189 13.0 22.0 0.00 0.00 0.00 46 1009.1
20260902180535 68 179 11.0 22.0 0.00 0.00 0.00 46 1009.1
20260902180055 67 190 12.0 24.0 0.00 0.00 0.00 47 1009.1
20260902175534 67 208 17.0 24.0 0.00 0.00 0.00 46 1009.2
20260902175038 67 203 15.0 22.0 0.00 0.00 0.00 47 1009.2
20260902174548 67 214 15.0 22.0 0.00 0.00 0.00 46 1009.4
20260902174037 67 192 15.0 22.0 0.00 0.00 0.00 47 1009.5
20260902173531 67 202 12.0 21.0 0.00 0.00 0.00 48 1009.4
20260902173054 67 201 14.0 21.0 0.00 0.00 0.00 48 1009.4
20260902172534 66 188 13.0 21.0 0.00 0.00 0.00 50 1009.2
20260902172034 66 207 13.0 20.0 0.00 0.00 0.00 50 1009.3
20260902171604 66 238 14.0 23.0 0.00 0.00 0.00 51 1009.3
20260902171036 66 217 14.0 23.0 0.00 0.00 0.00 51 1009.5
20260902170534 66 242 14.0 23.0 0.00 0.00 0.00 51 1009.5
20260902170054 65 223 13.0 24.0 0.00 0.00 0.00 52 1009.5
20260902165533 65 186 13.0 24.0 0.00 0.00 0.00 52 1009.3
20260902165035 65 200 12.0 22.0 0.00 0.00 0.00 53 1009.1
20260902164553 64 205 15.0 22.0 0.00 0.00 0.00 52 1009.2
20260902164036 64 197 12.0 25.0 0.00 0.00 0.00 53 1009.2
20260902163535 64 194 14.0 25.0 0.00 0.00 0.00 54 1009.2
20260902163052 63 209 14.0 24.0 0.00 0.00 0.00 54 1009.1
20260902162534 63 202 16.0 24.0 0.00 0.00 0.00 56 1009.1
20260902162036 63 204 18.0 24.0 0.00 0.00 0.00 57 1009.2
20260902161556 62 214 15.0 21.0 0.00 0.00 0.00 58 1009.1
20260902161037 62 200 14.0 23.0 0.00 0.00 0.00 59 1009.2
20260902160531 62 202 13.0 23.0 0.00 0.00 0.00 59 1009.4
20260902160112 61 191 13.0 27.0 0.00 0.00 0.00 59 1009.4
20260902155535 61 198 17.0 27.0 0.00 0.00 0.00 60 1009.3
20260902155035 61 200 16.0 25.0 0.00 0.00 0.00 60 1009.4
20260902154557 61 154 16.0 23.0 0.00 0.00 0.00 59 1009.5
20260902154034 61 198 13.0 21.0 0.00 0.00 0.00 61 1009.5
20260902153536 61 182 14.0 24.0 0.00 0.00 0.00 61 1009.6
20260902153052 60 196 11.0 24.0 0.00 0.00 0.00 62 1009.6
20260902152535 60 178 13.0 22.0 0.00 0.00 0.00 64 1009.6
20260902152034 60 191 14.0 22.0 0.00 0.00 0.00 65 1009.5
20260902151605 60 191 13.0 20.0 0.00 0.00 0.00 65 1009.4
20260902151038 60 194 13.0 22.0 0.00 0.00 0.00 65 1009.5
20260902150534 59 169 13.0 22.0 0.00 0.00 0.00 66 1009.3
20260902150053 59 168 14.0 22.0 0.00 0.00 0.00 66 1009.5
20260902145535 59 184 11.0 20.0 0.00 0.00 0.00 67 1009.5
20260902145035 59 180 12.0 21.0 0.00 0.00 0.00 68 1009.5
20260902144606 59 181 11.0 21.0 0.00 0.00 0.00 68 1009.3
20260902144034 59 178 10.0 17.0 0.00 0.00 0.00 68 1009.3